DW7413 Weather Reports


Display with metric or nautical units.
time (UTC)temp
F
wind
direction
speed
MPH
gust
MPH
rain 1hr
in
rain 24hr
in
rain mn
in
humidity
%
barometer
mb
20180820184259 83 180 2.0 5.0 0.00 0.00 0.00 33 1009.9
20180820183259 82 168 2.0 6.0 0.00 0.00 0.00 33 1009.9
20180820182259 82 165 1.0 5.0 0.00 0.00 0.00 35 1009.9
20180820181259 81 155 3.0 5.0 0.00 0.00 0.00 35 1009.9
20180820180259 81 165 4.0 4.0 0.00 0.00 0.00 34 1010.0
20180820175259 80 153 1.0 4.0 0.00 0.00 0.00 35 1010.0
20180820174259 79 163 1.0 5.0 0.00 0.00 0.00 36 1009.9
20180820173259 78 136 2.0 6.0 0.00 0.00 0.00 37 1010.0
20180820172259 78 150 3.0 4.0 0.00 0.00 0.00 38 1010.0
20180820171259 77 190 1.0 4.0 0.00 0.00 0.00 39 1009.9
20180820170259 77 11 0.0 4.0 0.00 0.00 0.00 38 1009.9
20180820165259 76 176 0.0 5.0 0.00 0.00 0.00 39 1009.8
20180820164259 75 178 1.0 3.0 0.00 0.00 0.00 41 1009.9
20180820163259 74 199 0.0 3.0 0.00 0.00 0.00 42 1009.8
20180820162259 72 146 1.0 2.0 0.00 0.00 0.00 43 1009.7
20180820161259 71 134 0.0 0.0 0.00 0.00 0.00 44 1009.8
20180820160300 69 118 0.0 0.0 0.00 0.00 0.00 46 1009.8
20180820155300 68 110 0.0 0.0 0.00 0.00 0.00 49 1009.9
20180820154259 67 107 0.0 0.0 0.00 0.00 0.00 50 1009.9
20180820153259 66 107 0.0 0.0 0.00 0.00 0.00 51 1009.9
20180820152259 65 107 0.0 0.0 0.00 0.00 0.00 53 1009.8
20180820151259 64 107 0.0 0.0 0.00 0.00 0.00 54 1009.6
20180820150259 63 107 0.0 2.0 0.00 0.00 0.00 55 1009.5
20180820145259 63 107 0.0 0.0 0.00 0.00 0.00 56 1009.5
20180820144259 62 107 0.0 1.0 0.00 0.00 0.00 57 1009.3
20180820143259 62 107 0.0 1.0 0.00 0.00 0.00 57 1009.3
20180820142259 62 107 0.0 0.0 0.00 0.00 0.00 55 1009.4
20180820141259 62 107 0.0 0.0 0.00 0.00 0.00 54 1009.3
20180820140259 63 107 0.0 0.0 0.00 0.00 0.00 52 1009.3
20180820135300 63 107 0.0 0.0 0.00 0.00 0.00 50 1009.1
20180820134300 63 107 0.0 0.0 0.00 0.00 0.00 49 1009.0
20180820133259 63 107 0.0 1.0 0.00 0.00 0.00 47 1008.8
20180820132259 64 107 0.0 1.0 0.00 0.00 0.00 42 1008.8
20180820131259 64 107 0.0 0.0 0.00 0.00 0.00 42 1008.6
20180820130259 64 107 0.0 0.0 0.00 0.00 0.00 42 1008.4
20180820125259 65 107 0.0 0.0 0.00 0.00 0.00 40 1008.4
20180820124259 65 107 0.0 0.0 0.00 0.00 0.00 40 1008.3
20180820123300 66 107 0.0 0.0 0.00 0.00 0.00 38 1008.3
20180820122259 66 107 0.0 0.0 0.00 0.00 0.00 38 1008.4
20180820121259 67 107 0.0 0.0 0.00 0.00 0.00 38 1008.4
20180820120259 67 107 0.0 0.0 0.00 0.00 0.00 34 1008.4
20180820115259 67 107 0.0 0.0 0.00 0.00 0.00 33 1008.4
20180820114259 67 107 0.0 0.0 0.00 0.00 0.00 34 1008.3
20180820113259 67 107 0.0 0.0 0.00 0.00 0.00 34 1008.3
20180820112259 67 107 0.0 0.0 0.00 0.00 0.00 33 1008.2
20180820111300 67 107 0.0 0.0 0.00 0.00 0.00 33 1008.2
20180820110259 67 107 0.0 0.0 0.00 0.00 0.00 33 1008.1
20180820105300 67 107 0.0 0.0 0.00 0.00 0.00 33 1008.2
20180820104259 67 107 0.0 0.0 0.00 0.00 0.00 34 1008.2
20180820103259 68 107 0.0 0.0 0.00 0.00 0.00 34 1008.2
20180820102259 68 107 0.0 0.0 0.00 0.00 0.00 33 1008.2
20180820101259 68 107 0.0 0.0 0.00 0.00 0.00 32 1008.2
20180820100259 69 107 0.0 0.0 0.00 0.00 0.00 32 1008.2
20180820095259 69 10 0.0 0.0 0.00 0.00 0.00 32 1008.2
20180820094259 69 10 0.0 0.0 0.00 0.00 0.00 30 1008.3
20180820093300 69 10 0.0 0.0 0.00 0.00 0.00 28 1008.3
20180820092300 69 10 0.0 1.0 0.00 0.00 0.00 30 1008.4
20180820091259 69 10 0.0 0.0 0.00 0.00 0.00 31 1008.5
20180820090259 69 10 0.0 0.0 0.00 0.00 0.00 32 1008.5
20180820085300 70 10 0.0 0.0 0.00 0.00 0.00 32 1008.5
20180820084259 70 10 0.0 0.0 0.00 0.00 0.00 32 1008.5
20180820083300 70 10 0.0 0.0 0.00 0.00 0.00 31 1008.6
20180820082259 70 10 0.0 0.0 0.00 0.00 0.00 31 1008.6
20180820081259 71 10 0.0 0.0 0.00 0.00 0.00 30 1008.6
20180820080300 71 10 0.0 0.0 0.00 0.00 0.00 31 1008.7
20180820075301 71 10 0.0 0.0 0.00 0.00 0.00 29 1008.6
20180820074259 71 10 0.0 0.0 0.00 0.00 0.00 31 1008.8
20180820073259 71 10 0.0 0.0 0.00 0.00 0.00 30 1008.8
20180820072259 71 10 0.0 0.0 0.00 0.00 0.00 29 1008.9
20180820071259 71 10 0.0 1.0 0.00 0.00 0.00 29 1008.9
20180820070300 72 123 0.0 0.0 0.00 0.00 0.00 32 1008.9
20180820065300 72 128 0.0 0.0 0.00 0.00 0.00 32 1008.9
20180820064259 72 129 0.0 1.0 0.00 0.00 0.00 32 1009.0
20180820063300 72 129 0.0 0.0 0.00 0.00 0.00 32 1009.0
20180820062300 73 130 0.0 0.0 0.00 0.00 0.00 32 1009.0
20180820061300 73 130 0.0 0.0 0.00 0.00 0.00 31 1009.1
20180820060300 74 130 0.0 0.0 0.00 0.00 0.00 30 1009.1
20180820055300 74 130 0.0 0.0 0.00 0.00 0.00 29 1009.1
20180820054259 74 130 0.0 0.0 0.00 0.00 0.00 29 1009.2
20180820053300 74 130 0.0 0.0 0.00 0.00 0.00 29 1009.1
20180820052259 75 130 0.0 0.0 0.00 0.00 0.00 28 1009.2
20180820051300 75 130 0.0 1.0 0.00 0.00 0.00 27 1009.2
20180820050259 76 131 0.0 1.0 0.00 0.00 0.00 27 1009.3
20180820045300 76 131 0.0 1.0 0.00 0.00 0.00 27 1009.3
20180820044300 77 131 0.0 0.0 0.00 0.00 0.00 27 1009.2
20180820043300 77 131 0.0 0.0 0.00 0.00 0.00 28 1009.1
20180820042259 78 131 0.0 1.0 0.00 0.00 0.00 27 1009.1
20180820041300 78 131 0.0 2.0 0.00 0.00 0.00 27 1009.0
20180820040300 79 142 0.0 1.0 0.00 0.00 0.00 26 1008.9
20180820035259 80 142 0.0 1.0 0.00 0.00 0.00 25 1008.9
20180820034300 81 142 0.0 2.0 0.00 0.00 0.00 25 1008.9
20180820033300 82 142 0.0 2.0 0.00 0.00 0.00 25 1008.8
20180820032300 82 11 1.0 3.0 0.00 0.00 0.00 25 1008.9
20180820031300 83 11 1.0 3.0 0.00 0.00 0.00 25 1008.7
20180820030259 84 11 1.0 3.0 0.00 0.00 0.00 25 1008.6
20180820025300 84 12 2.0 3.0 0.00 0.00 0.00 26 1008.6
20180820024300 85 11 1.0 3.0 0.00 0.00 0.00 25 1008.6
20180820023259 86 11 2.0 4.0 0.00 0.00 0.00 25 1008.6
20180820022259 87 11 2.0 5.0 0.00 0.00 0.00 26 1008.6
20180820021300 87 12 1.0 6.0 0.00 0.00 0.00 25 1008.5
20180820020300 88 11 1.0 5.0 0.00 0.00 0.00 24 1008.4
20180820015300 89 11 1.0 5.0 0.00 0.00 0.00 24 1008.4
20180820014300 90 11 2.0 6.0 0.00 0.00 0.00 24 1008.3
20180820013300 90 11 3.0 7.0 0.00 0.00 0.00 25 1008.4
20180820012259 91 12 4.0 7.0 0.00 0.00 0.00 24 1008.4
20180820011300 92 141 3.0 8.0 0.00 0.00 0.00 24 1008.4
20180820010300 93 178 2.0 7.0 0.00 0.00 0.00 23 1008.5
20180820005300 93 161 1.0 5.0 0.00 0.00 0.00 22 1008.5
20180820004300 94 159 0.0 6.0 0.00 0.00 0.00 21 1008.6
20180820003300 94 190 0.0 7.0 0.00 0.00 0.00 18 1008.6
20180820002300 95 199 1.0 5.0 0.00 0.00 0.00 15 1008.8
20180820001300 95 190 4.0 6.0 0.00 0.00 0.00 15 1008.8
20180820000300 95 190 0.0 4.0 0.00 0.00 0.00 15 1008.9
20180819235300 96 177 2.0 5.0 0.00 0.00 0.00 14 1008.9
20180819234300 96 142 0.0 6.0 0.00 0.00 0.00 14 1009.0
20180819233300 96 145 2.0 5.0 0.00 0.00 0.00 16 1009.0
20180819232300 96 171 4.0 5.0 0.00 0.00 0.00 16 1009.2
20180819231300 96 160 2.0 5.0 0.00 0.00 0.00 15 1009.2
20180819230300 96 152 1.0 4.0 0.00 0.00 0.00 16 1009.4
20180819225300 97 202 1.0 5.0 0.00 0.00 0.00 16 1009.4
20180819224259 97 213 0.0 6.0 0.00 0.00 0.00 17 1009.5
20180819223300 97 165 2.0 6.0 0.00 0.00 0.00 17 1009.7
20180819222300 96 171 0.0 6.0 0.00 0.00 0.00 15 1009.8
20180819221300 96 196 3.0 4.0 0.00 0.00 0.00 16 1010.0
20180819220300 96 163 2.0 6.0 0.00 0.00 0.00 17 1010.2
20180819215300 96 167 3.0 3.0 0.00 0.00 0.00 18 1010.3
20180819214300 96 198 1.0 6.0 0.00 0.00 0.00 18 1010.5
20180819213300 96 190 1.0 7.0 0.00 0.00 0.00 18 1010.5
20180819212300 96 188 0.0 5.0 0.00 0.00 0.00 18 1010.6
20180819211300 95 207 0.0 4.0 0.00 0.00 0.00 18 1010.7
20180819210300 95 167 0.0 5.0 0.00 0.00 0.00 18 1010.8
20180819205300 95 180 3.0 6.0 0.00 0.00 0.00 18 1010.9
20180819204300 95 150 2.0 5.0 0.00 0.00 0.00 19 1011.0
20180819203300 94 152 2.0 6.0 0.00 0.00 0.00 19 1011.0
20180819202300 94 150 2.0 4.0 0.00 0.00 0.00 21 1011.1
20180819201300 93 159 1.0 5.0 0.00 0.00 0.00 20 1011.2
20180819200300 92 194 3.0 5.0 0.00 0.00 0.00 20 1011.2
20180819195300 92 178 1.0 5.0 0.00 0.00 0.00 20 1011.3
20180819194300 92 161 2.0 5.0 0.00 0.00 0.00 21 1011.4
20180819193300 91 165 2.0 7.0 0.00 0.00 0.00 22 1011.5
20180819192300 91 158 2.0 5.0 0.00 0.00 0.00 22 1011.6
20180819191300 90 171 2.0 4.0 0.00 0.00 0.00 22 1011.8
20180819190300 90 165 1.0 3.0 0.00 0.00 0.00 23 1011.7
20180819185300 89 146 3.0 5.0 0.00 0.00 0.00 24 1011.8